Regional Weather Roundup
Issued by NWS Little Rock, AR

Home | Current Version | Previous Version | Text Only | Print | Product List | Glossary Off
Versions: 1 2 3 4 5 6 7 8 9 10 11 12 13 14 15 16 17 18 19 20 21 22 23 24 25 26 27 28 29 30 31 32 33 34 35 36 37 38 39 40 41 42 43 44 45 46 47 48 49 50

000
ASUS44 KLZK 012105
RWRLZK

WEATHER ROUNDUP FOR ARKANSAS
NATIONAL WEATHER SERVICE LITTLE ROCK AR
400 PM CDT MON SEP 01 2014

NOTE: "FAIR" INDICATES FEW OR NO CLOUDS BELOW 12,000 FEET WITH NO
SIGNIFICANT WEATHER AND/OR OBSTRUCTIONS TO VISIBILITY.

ARZ001-003-010-029-012200-
NORTHWEST ARKANSAS

CITY           SKY/WX    TMP DP  RH WIND       PRES   REMARKS
FAYETTEVILLE   SUNNY     87  70  56 S21G30    29.90F HX  92
FORT SMITH     MOSUNNY   93  70  46 S16G24    29.87F HX  99
HARRISON       MOSUNNY   83  70  64 S16       29.94F HX  87
BENTONVILLE    MOSUNNY   88  70  55 S14G21    29.91F HX  92
ROGERS         PTSUNNY   89  70  53 S18G25    29.91F HX  94
HIGHFILL       MOSUNNY   87  70  56 S20G26    29.89F HX  92
SPRINGDALE     PTSUNNY   86  72  62 S13G22    29.92F HX  92
$$

ARZ004-005-016-012200-
NORTH CENTRAL ARKANSAS

CITY           SKY/WX    TMP DP  RH WIND       PRES   REMARKS
BATESVILLE     PTSUNNY   91  70  49 SW12G21   29.93F HX  97
FLIPPIN        MOSUNNY   88  66  48 S8G17     29.92F HX  90
MTN HOME       MOSUNNY   88  69  53 S16       29.92F HX  92
$$

ARZ040-041-012200-
WEST CENTRAL ARKANSAS

CITY           SKY/WX    TMP DP  RH WIND       PRES   REMARKS
MENA           MOSUNNY   90  72  55 SE6G16    29.95F HX  96
MOUNT IDA      MOSUNNY   88  72  58 S9        29.93F HX  94
$$

ARZ009-017-025-026-028-012200-
NORTHEAST ARKANSAS

CITY           SKY/WX    TMP DP  RH WIND       PRES   REMARKS
CORNING        LGT RAIN  90  73  58 S20       29.91F HX  98
JONESBORO      MOSUNNY   89  71  55 S20       29.93F HX  95
NEWPORT        MOSUNNY   91  72  53 S16G23    29.95F HX  98
WALNUT RIDGE   MOSUNNY   90  57  33 S20G26    29.90F HX  88
BLYTHEVILLE    MOSUNNY   90  74  59 SW14G20   29.95F HX  99
$$

ARZ022-023-033-042-044-012200-
CENTRAL ARKANSAS

CITY           SKY/WX    TMP DP  RH WIND       PRES   REMARKS
LITTLE ROCK    MOSUNNY   91  69  48 S12G22    29.94F HX  96
N LITTLE ROCK  MOSUNNY   91  73  55 S13G20    29.94F HX  98
JACKSONVILLE   MOSUNNY   91  72  53 S12       29.94F HX  98
SEARCY         MOSUNNY   91  73  55 W13       29.95F HX  99
HOT SPRINGS    MOSUNNY   90  70  51 S10       29.94F HX  95
RUSSELLVILLE   PTSUNNY   90  71  53 VRB7      29.92F HX  96
CLINTON        PTSUNNY   88  73  62 SE8       29.93F HAZE    HX  96
$$

ARZ036-012200-
EAST ARKANSAS

CITY           SKY/WX    TMP DP  RH WIND       PRES   REMARKS
WEST MEMPHIS   MOSUNNY   90  75  61 S12       29.95F HX 100
$$

ARZ050-053-066-070-073-012200-
SOUTHWEST ARKANSAS

CITY           SKY/WX    TMP DP  RH WIND       PRES   REMARKS
ARKADELPHIA    FAIR      92  74  55 S8        29.93F HX 101
CAMDEN         MOSUNNY   90  73  58 SE7G21    29.95F HX  98
TEXARKANA      PTSUNNY   94  69  44 S10       29.92F HX  99
EL DORADO      RAIN      81  74  79 SE15G25   29.97F HX  86
DE QUEEN       MOSUNNY   92  72  51 VRB6      29.89F HX  99
$$

ARZ056-057-069-012200-
SOUTHEAST ARKANSAS

CITY           SKY/WX    TMP DP  RH WIND       PRES   REMARKS
PINE BLUFF     SUNNY     89  71  55 S13       29.96F HX  95
STUTTGART      SUNNY     91  73  55 S13       29.97F HX 100
MONTICELLO     MOSUNNY   89  74  60 S8        29.97F HX  98

$$





USA.gov is the U.S. government's official web portal to all federal, state and local government web resources and services.